Regional Weather Roundup
Issued by NWS

Home | Current Version | Previous Version | Text Only | Print | Product List | Glossary On
Versions: 1 2 3 4 5 6 7 8 9 10 11 12 13 14 15 16 17 18 19 20 21 22 23 24 25 26 27 28 29 30 31 32 33 34 35 36 37 38 39 40 41 42 43 44 45 46 47 48 49 50
000
ASUS44 KLUB 232101
RWRTX
WEST TEXAS WEATHER ROUNDUP
NATIONAL WEATHER SERVICE LUBBOCK TX
400 PM CDT WED APR 23 2014

NOTE: "FAIR" INDICATES FEW OR NO CLOUDS BELOW 12,000 FEET WITH NO
SIGNIFICANT WEATHER AND/OR OBSTRUCTIONS TO VISIBILITY.

TXZ004-006>008-010-012-014-016-OKZ002-232200-
TEXAS PANHANDLE/OKLAHOMA PANHANDLE

CITY           SKY/WX    TMP DP  RH WIND       PRES   REMARKS
AMARILLO       PTSUNNY   88  41  19 S24G33    29.66F
BORGER         MOSUNNY   89  40  17 SW20G31   29.60F
DALHART        PTSUNNY   86  24  10 S29G45    29.64F
GUYMON         CLOUDY    88  37  16 S28G37    29.55F
$$

TXZ026-029-035-045-048-232200-
SOUTHERN PANHANDLE/SOUTH PLAINS/ROLLING PLAINS

CITY           SKY/WX    TMP DP  RH WIND       PRES   REMARKS
CHILDRESS      PTSUNNY   87  55  33 S26G38    29.64F
LUBBOCK        CLOUDY    87  42  20 S18G31    29.70F
$$

TXZ052-054-060>062-072-078-127-140-154-169-232200-
PERMIAN BASIN/CONCHO VALLEY/BIG COUNTRY/EDWARDS PLATEAU

CITY           SKY/WX    TMP DP  RH WIND       PRES   REMARKS
ABILENE        MOSUNNY   88  53  30 S15G33    29.71F
BROWNWOOD      MOSUNNY   90  55  31 S18G24    29.75F
JUNCTION       SUNNY     90  56  31 S16G24    29.75F
MIDLAND        CLOUDY    90  47  22 SW13G18   29.72F
ODESSA           N/A    N/A N/A N/A MISG      29.73F
SAN ANGELO     MOSUNNY   95  49  20 S20G28    29.71F
WINK           PTSUNNY   92  33  12 S10G23    29.71F
$$

TXZ055-058-074-075-080-082-232200-
FAR WEST/SOUTHWEST MOUNTAINS/TRANS PECOS

CITY           SKY/WX    TMP DP  RH WIND       PRES   REMARKS
DRYDEN           N/A     98  55  23 SE22G30   29.70F HX  96
EL PASO        MOSUNNY   85  18   8 SW29G35   29.80F
FORT STOCKTON  PTSUNNY   92  24   8 W17G24    29.74F
GUADALUPE PASS MOSUNNY   78  22  12 W37       29.88F
MARFA          PTSUNNY   82  27  13 SW15G30   29.90F
$$

TXZ014-016-019-021>030-083-232200
TEXAS TECH WEST TEXAS MESONET/TEXAS PANHANDLE/NORTHERN SOUTH PLAINS

CITY           SKY/WX    TMP DP  RH WIND       PRES   REMARKS
ABERNATHY 5ENE   N/A     86  42  21 S22       29.71F
AMARILLO 9NNE    N/A     86  37  17 S35       29.63F
AMARILLO 7SSE    N/A     88  40  18 SW24      29.67F
AMHERST 1NE      N/A     83  19   9 S21       29.71F
BOOTLEG 11WNW    N/A     84  24  11 SW24      29.71F
CANADIAN 6E      N/A     79  55  42 S29       29.65F
CAPROCK CYN SP   N/A     85  51  30 S25       29.66F
CHILDRESS 2NNE   N/A     87  53  30 S24       29.65F
CLARENDON 2WSW   N/A     80  56  42 SE18      29.67F
CLAUDE 12SW      N/A     84  45  25 S21       29.67F
DIMMITT 2NE      N/A     84  25  11 S23       29.70F
FLOYDADA 2NNE    N/A     86  45  24 S20       29.70F
FRIONA 2NE       N/A     85  21   9 SW24G36   29.69F
GOODLETT 3W      N/A     89  50  26 S24       29.65F
HART 3N          N/A     83  28  13 SW23      29.70F
HEREFORD 2NW     N/A     84  24  11 S22G32    29.68F
MCLEAN 1E        N/A     76  57  51 SE22      29.69F
MEMPHIS 1NE    LGT RAIN  83  58  43 SE12      29.64F
MULESHOE 2SSW    N/A     86  14   7 S23       29.70F
OLTON 6S         N/A     83  27  12 SW20      29.71F
PALO DURO SP     N/A     85  43  22 S24       29.69F
PAMPA 2E         N/A     81  54  39 SE26      29.67F
PLAINVIEW 1S     N/A     84  43  23 SW16      29.69F
SILVERTON 7ESE   N/A     86  46  25 S20G31    29.69F
TULIA 2ENE       N/A     85  41  21 S22       29.69F
TURKEY 2WSW      N/A     86  52  31 S22       29.64F
UMBARGER 3NNE    N/A     85  32  15 S26       29.68F
$$

TXZ033>036-039>041-045>048-232200
TEXAS TECH WEST TEXAS MESONET/SOUTH PLAINS

CITY           SKY/WX    TMP DP  RH WIND       PRES   REMARKS
AIKEN 3WSW       N/A     87  46  24 S25       29.71F
ANDREWS 2NE      N/A     87  32  14 SW10G20   29.76F
ANTON 6SSW       N/A     86  29  12 SW20      29.71F
BROWNFIELD 2S    N/A     85  28  12 SW21      29.72F
DENVR CTY 7WNW   N/A     86  19   8 SW22      29.74F
GAIL 2ESE        N/A     91  46  21 SW15      29.69F
LAMESA 2SE       N/A     85  47  25 SW13      29.73F
LEVELLAND 4S     N/A     85  22  10 SW22      29.72F
LUBBOCK 3WNW     N/A     87  41  19 S17G26    29.70F
MORTON 1ENE      N/A     83  18   9 SW24      29.72F
ODONNELL 1N      N/A     86  36  16 SW17      29.73F
PLAINS 3N        N/A     87  17   7 SW22      29.74F
RALLS 1SE        N/A     88  48  24 S21G30    29.71F
REESE CENTER     N/A     86  29  12 SW21      29.71F
SEAGRAVES 1SW    N/A     86  29  12 SW20      29.74F
SEMINOLE 2NNE    N/A     86  30  13 SW15      29.74F
SLATON 2NE       N/A     89  42  19 S21G33    29.70F
SNYDER 3E        N/A     92  51  24 S16       29.70F
SUNDOWN 8SW      N/A     87  22   9 SW22G32   29.73F
TAHOKA 3NNE      N/A     89  38  16 S18       29.71F
WOLFFORTH 6SSW   N/A     88  32  13 SW22      29.71F
$$

TXZ031-032-036>038-042>044-232200-
TEXAS TECH WEST TEXAS MESONET/ROLLING PLAINS

CITY           SKY/WX    TMP DP  RH WIND       PRES   REMARKS
ASPERMONT 3NE    N/A     90  54  29 SE17G32   29.66F
FLUVANNA 3WNW    N/A     90  46  22 S23       29.70F
GRAHAM 5SSW      N/A     87  43  21 S20       29.71F
GUTHRIE 10WSW    N/A     87  54  32 S21       29.65F
HASKELL 1NW      N/A     88  52  28 S16G29    29.68F
KNOX CITY 3NW    N/A     91  51  25 S21       29.67F
LK A HENRY 1NW   N/A     90  53  28 S25       29.66F
NORTHFIELD 1S    N/A     89  55  32 S23G37    29.64F
PADUCAH 10SW     N/A     85  57  38 S23G33    29.66F
POST 1NE         N/A     90  45  21 SW20      29.68F
RRING SPRGS 3N   N/A     86  53  31 S20G31    29.68F
SEYMOUR 3NW      N/A     88  54  31 SE17      29.69F
SPUR 1W          N/A     89  49  25 S17       29.67F
WEINERT 2NNE     N/A     90  55  30 S22       29.69F
WHITE RVR 6NE    N/A     89  50  25 S22       29.68F
$$

TXZ052-054-060>062-072-078-127-140-154-169-232200-
TEXAS TECH WEST TEXAS MESONET/PERMIAN BASIN/
CONCHO VALLEY/BIG COUNTRY/EDWARDS PLATEAU

CITY           SKY/WX    TMP DP  RH WIND       PRES   REMARKS
COYANOSA 2N      N/A     91  42  18 SW9       29.72F
JUNCTION 1SSW    N/A     90  58  34 SE9       29.77F
MERTZON 3NNE     N/A     92  53  26 S16       29.73F
SAN ANGELO 7NW   N/A     93  48  21 S15       29.72F
STRLNG CT 4WSW   N/A     91  50  24 S13       29.72F
ST LAWRNCE 5SW   N/A     91  42  18 S14G23    29.73F
SWEETWATR 11SW   N/A     91  54  29 S20       29.74F
WALL 1E          N/A     92  49  22 S14       29.73F
$$

TXZ055-058-074-075-080-082-232200-
TEXAS TECH WEST TEXAS MESONET/FAR WEST/SOUTHWEST MOUNTAINS/TRANS PECOS

CITY           SKY/WX    TMP DP  RH WIND       PRES   REMARKS
PRSMN GAP BBNP   N/A     96  32  10 SW16      29.73F
$$



USA.gov is the U.S. government's official web portal to all federal, state and local government web resources and services.